GEFSSGP_con_prob3kmehi_000.txt.gz
EHI
0 0 0 0 0 0 0 0 0 0 0 0 0 0 0 0 0 0 0 3 16 27 21 33 62 62 36 18 7 2 0 0 0 0 0 0 0 0 0 0 0 0 0 0 0 0 0 0 0
0 0 0 0 0 0 0 0 0 0 0 0 0 0 0 0 0 0 0 9 33 51 43 47 71 77 62 44 25 10 2 0 0 0 0 0 0 0 0 0 0 0 0 0 0 0 0 0 0
0 0 0 0 0 0 0 0 0 0 0 0 0 0 0 0 0 0 1 15 47 71 72 74 86 92 88 78 57 30 9 1 0 0 0 0 0 0 0 0 0 0 0 0 0 0 0 0 0
0 0 0 0 0 0 0 0 0 0 0 0 0 0 0 0 0 1 3 17 48 76 87 92 96 98 98 95 81 52 20 3 0 0 0 0 0 0 0 0 0 0 0 0 0 0 0 0 0
0 0 0 0 0 0 0 0 0 0 0 0 0 0 0 0 0 2 4 15 47 79 92 95 99 100 100 99 92 70 37 12 3 0 0 0 0 0 0 0 0 0 0 0 0 0 0 0 0
0 0 0 0 0 0 0 0 0 1 1 1 0 0 0 0 0 1 3 17 49 82 93 94 96 98 99 99 97 85 64 42 24 11 3 0 0 0 0 0 0 0 0 0 0 0 0 0 0
0 0 0 0 0 0 0 0 0 2 4 3 1 0 0 1 8 18 27 39 60 82 92 90 88 90 93 97 98 95 87 77 62 41 20 8 3 1 0 0 0 0 0 0 0 0 1 2 4
0 0 0 0 0 0 0 0 1 4 5 3 1 0 0 7 29 56 71 75 74 79 87 83 70 65 70 78 87 91 87 82 75 59 36 16 6 2 0 0 0 0 0 0 0 0 4 11 16
0 0 0 0 0 0 0 0 1 3 3 1 1 1 2 18 54 86 98 94 78 63 62 58 41 30 34 45 57 63 59 52 50 42 27 13 5 2 0 0 0 0 0 0 2 5 10 18 24
0 0 0 0 0 0 0 0 1 1 1 0 0 3 10 33 69 93 100 93 68 36 24 22 14 7 10 16 22 25 23 21 22 20 13 7 4 3 2 1 2 2 1 3 7 10 12 13 16
0 0 0 0 0 0 0 0 0 1 0 0 0 3 14 36 65 88 97 91 62 23 4 3 2 2 2 4 5 5 7 10 13 15 12 7 5 5 5 5 8 10 11 15 20 19 12 8 7
0 0 0 0 0 0 0 0 0 2 3 1 0 2 8 20 41 68 87 91 71 38 14 5 3 1 0 0 1 3 7 11 16 17 14 11 11 13 13 13 17 24 26 32 36 27 14 8 7
0 0 0 0 0 0 0 0 2 10 14 7 3 5 6 8 19 43 72 89 85 61 32 16 10 4 0 0 1 4 8 13 15 16 17 19 22 29 32 28 27 32 37 43 45 32 18 12 11
0 0 0 0 0 0 0 0 8 29 43 35 30 33 32 32 36 48 70 86 90 77 53 35 25 13 3 1 5 16 25 21 13 10 16 24 36 50 60 53 38 31 32 36 37 29 18 14 16
0 0 0 0 0 0 0 0 17 53 77 77 74 74 74 76 78 80 84 89 92 87 77 65 53 40 27 17 19 33 40 29 12 6 11 23 43 69 83 74 47 24 21 27 33 29 18 11 11
0 0 0 0 0 0 0 4 27 68 94 99 98 98 98 99 99 98 97 96 96 96 95 90 83 72 56 37 29 32 31 20 10 7 9 17 38 64 80 73 47 21 20 38 49 40 21 8 4
0 0 0 0 0 0 0 7 34 69 92 99 100 100 100 96 89 85 90 97 100 100 99 94 87 77 63 45 28 19 13 8 6 7 8 11 22 37 51 55 44 27 33 56 64 46 22 7 2
0 0 0 0 0 0 0 6 24 56 84 97 99 100 97 85 64 51 60 79 91 95 92 81 70 63 55 39 21 10 5 4 3 4 6 8 11 16 27 39 43 43 51 63 60 39 17 5 1
0 0 0 0 0 0 0 1 8 32 70 94 99 100 94 72 39 20 24 44 62 71 71 64 57 48 38 26 13 6 3 2 1 3 5 7 9 10 15 24 39 55 67 67 57 37 18 6 2
0 0 0 0 0 0 0 0 3 25 63 92 97 94 80 52 21 8 10 18 28 35 40 44 42 34 27 19 11 6 5 3 1 3 6 7 7 8 9 12 26 46 58 58 53 45 29 12 3
0 0 0 0 0 0 0 0 6 28 61 84 88 75 51 24 8 7 10 9 10 11 14 19 22 26 30 27 16 7 4 3 1 2 4 4 4 5 8 10 16 26 32 31 36 46 40 19 6
0 0 0 0 0 0 0 0 4 18 38 56 60 45 20 4 1 3 5 4 3 3 2 3 7 16 26 26 16 5 2 1 0 1 1 1 1 2 5 9 12 14 14 10 15 28 30 18 9
0 0 0 0 0 0 0 0 1 4 10 19 23 15 5 0 0 0 0 0 0 0 0 0 1 5 11 12 7 2 0 0 0 0 0 0 0 0 1 3 5 6 7 3 4 9 11 9 6
0 0 0 0 0 0 0 0 0 0 1 2 2 1 0 0 0 0 0 0 0 0 0 0 0 2 5 5 2 0 0 0 0 0 0 0 0 0 0 0 0 1 2 1 0 1 1 1 2
0 0 0 0 0 0 0 0 0 0 0 0 0 0 0 0 0 0 0 0 0 0 0 0 0 3 7 7 4 1 0 0 0 0 0 0 0 0 0 0 0 0 0 0 0 0 0 0 0
0 0 0 0 0 0 0 0 0 0 0 0 0 0 0 0 0 0 0 0 0 0 0 0 1 2 4 5 4 1 0 0 0 0 0 0 0 0 0 0 0 0 0 0 0 0 0 0 0
0 0 0 0 0 0 0 0 0 0 0 0 0 0 0 0 0 0 0 0 0 0 0 0 0 0 0 1 1 0 0 0 0 0 0 0 0 0 0 0 0 0 0 0 0 0 0 0 0
0 0 0 0 0 0 0 0 0 0 0 0 0 0 0 0 0 0 0 0 0 0 0 0 0 0 0 0 0 0 0 0 0 0 0 0 0 0 0 0 0 0 0 0 0 0 0 0 0
0 0 0 0 0 0 0 0 0 0 0 0 0 0 0 0 0 0 0 0 0 0 0 0 0 0 0 0 0 0 0 0 0 0 0 0 0 0 0 0 0 0 0 0 0 0 0 0 0
0 0 0 0 0 0 0 0 0 0 0 0 0 0 0 0 0 0 0 0 0 0 0 0 0 0 0 0 0 0 0 0 0 0 0 0 0 0 0 0 0 0 0 0 0 0 0 0 0

GEFSSGP_con_prob3kmehi_006.txt.gz
EHI
0 0 0 0 0 0 0 0 0 0 0 0 0 0 0 0 0 0 0 0 0 0 0 0 0 0 0 0 0 0 0 0 0 0 0 0 0 0 0 0 0 0 0 0 0 0 0 0 0
0 0 0 0 0 0 0 0 0 0 0 0 0 0 0 0 0 0 0 0 0 0 0 0 0 0 0 0 0 0 0 0 0 0 0 0 0 0 0 0 0 0 0 0 0 0 0 0 0
0 0 0 0 0 0 0 0 0 0 0 0 0 0 0 0 0 0 0 0 0 0 0 0 0 0 0 0 0 1 0 0 0 0 0 0 0 0 0 0 0 0 0 0 0 0 0 0 0
0 0 0 0 0 0 0 0 0 0 0 0 0 0 0 0 0 0 0 1 3 3 2 2 2 1 0 0 0 0 0 0 0 0 0 0 0 0 0 0 0 0 0 0 0 0 0 0 0
0 0 0 0 0 0 0 0 0 0 0 0 0 0 0 0 0 0 0 4 13 17 11 8 11 8 2 1 0 0 0 0 0 0 0 0 0 0 0 0 0 0 0 0 0 0 0 0 0
0 0 0 0 0 0 0 0 0 0 0 0 0 0 0 0 0 0 1 8 27 41 31 21 20 13 6 3 1 0 0 0 0 0 0 0 0 0 0 0 0 0 0 0 0 0 0 0 0
0 0 0 0 0 0 0 0 0 0 0 0 0 0 0 0 0 0 1 11 34 55 50 34 23 13 7 5 1 0 0 0 0 0 0 0 0 0 0 0 0 0 0 0 0 0 0 0 0
0 0 0 0 0 0 0 0 0 0 0 0 0 0 0 0 0 0 1 9 28 48 51 45 37 24 15 11 6 2 1 1 1 0 0 0 0 0 0 0 0 0 0 0 0 0 0 0 0
0 0 0 0 0 0 0 0 0 0 0 0 0 0 1 1 1 1 1 4 13 29 44 56 62 54 43 37 30 23 17 11 7 4 1 0 0 0 0 0 0 0 0 0 0 0 0 0 0
0 0 0 0 0 0 0 0 0 0 0 0 0 1 4 6 4 1 1 1 3 12 29 50 66 73 73 70 64 56 48 38 27 16 6 1 0 0 0 0 0 0 0 0 0 0 0 0 0
0 0 0 0 0 0 0 0 0 0 0 0 7 15 17 13 6 1 1 1 1 3 11 24 41 57 68 71 66 65 66 60 47 32 18 9 5 1 0 0 0 0 0 0 0 0 0 0 0
0 0 0 0 0 0 0 0 0 0 0 3 20 43 41 23 9 3 2 2 1 0 1 5 14 26 35 38 35 37 47 48 39 31 30 30 21 9 4 2 1 1 0 0 0 0 0 0 0
0 0 0 0 0 0 0 0 0 0 0 6 27 52 52 30 16 11 9 6 2 0 0 0 3 7 11 11 9 10 16 18 15 16 29 45 43 28 16 8 5 3 1 1 0 0 0 0 0
0 0 0 0 0 0 0 0 0 1 5 16 29 40 38 26 18 20 24 21 12 6 4 2 1 2 3 3 1 0 1 2 2 4 17 36 43 38 26 14 7 7 6 5 3 2 1 1 0
0 0 0 0 0 0 0 1 3 10 25 44 50 45 36 24 16 22 35 42 39 32 26 18 11 6 3 1 0 0 0 1 0 1 6 14 21 23 19 12 7 7 9 10 9 7 4 3 1
0 0 0 0 0 0 0 5 16 34 58 77 80 70 54 35 23 25 40 56 67 68 62 49 35 21 10 3 1 0 0 0 0 0 1 3 4 6 7 5 3 3 6 9 10 8 6 4 2
0 0 0 0 0 0 1 15 43 68 84 94 93 82 63 43 30 30 39 55 71 77 74 64 48 30 15 5 1 0 0 1 0 0 1 1 1 1 2 1 0 0 1 4 4 5 6 5 3
0 0 0 0 0 0 7 32 67 86 91 93 90 79 61 42 28 23 27 37 46 48 48 45 36 22 11 3 1 0 0 0 0 0 1 1 0 0 0 0 0 0 0 0 0 1 4 5 2
0 0 0 0 0 0 9 34 55 64 72 81 82 75 61 42 23 11 9 12 15 16 18 20 17 10 4 1 0 0 0 0 0 0 0 0 0 0 0 0 0 0 0 0 0 1 2 2 1
0 0 0 0 0 0 5 14 20 25 40 62 73 69 60 41 19 5 1 0 1 2 4 7 6 3 1 0 0 0 0 0 0 0 0 0 0 0 0 0 0 0 0 0 1 2 2 1 0
0 0 0 0 0 0 0 0 1 5 22 47 62 62 51 30 11 2 0 0 0 0 1 1 1 2 1 0 0 0 0 0 0 0 0 0 0 0 0 0 0 0 0 0 0 2 2 1 0
0 0 0 0 0 0 0 0 0 3 13 30 45 46 33 15 3 0 0 0 0 0 0 0 1 1 1 1 1 1 1 0 0 0 0 0 0 0 0 0 0 0 0 0 0 1 2 2 1
0 0 0 0 0 0 0 0 0 1 4 11 20 22 13 4 0 0 0 0 0 0 0 0 0 0 1 2 2 2 1 0 0 0 0 0 0 0 0 0 0 0 0 0 0 0 1 2 2
0 0 0 0 0 0 0 0 0 0 0 1 4 5 3 1 0 0 0 0 0 0 0 0 0 0 0 1 1 1 1 0 0 0 0 0 0 0 0 0 0 0 0 0 0 0 0 1 1
0 0 0 0 0 0 0 0 0 0 0 0 0 0 0 0 0 0 0 0 0 0 0 0 0 0 0 0 0 0 0 0 0 0 0 0 0 0 0 0 0 0 0 0 0 0 0 0 0
0 0 0 0 0 0 0 0 0 0 0 0 0 0 0 0 0 0 0 0 0 0 0 0 0 0 0 0 0 0 0 0 0 0 0 0 0 0 0 0 0 0 0 0 0 0 0 0 0
0 0 0 0 0 0 0 0 0 0 0 0 0 0 0 0 0 0 0 0 0 0 0 0 0 0 0 0 0 0 0 0 0 0 0 0 0 0 0 0 0 0 0 0 0 0 0 0 0
0 0 0 0 0 0 0 0 0 0 0 0 0 0 0 0 0 0 0 0 0 0 0 0 0 0 0 0 0 0 0 0 0 0 0 0 0 0 0 0 0 0 0 0 0 0 0 0 0
0 0 0 0 0 0 0 0 0 0 0 0 0 0 0 0 0 0 0 0 0 0 0 0 0 0 0 0 0 0 0 0 0 0 0 0 0 0 0 0 0 0 0 0 0 0 0 0 0
0 0 0 0 0 0 0 0 0 0 0 0 0 0 0 0 0 0 0 0 0 0 0 0 0 0 0 0 0 0 0 0 0 0 0 0 0 0 0 0 0 0 0 0 0 0 0 0 0

GEFSSGP_con_prob3kmehi_012.txt.gz
EHI
0 0 0 0 0 0 0 0 0 0 0 0 0 0 0 0 0 0 0 0 0 0 0 0 0 0 0 0 0 0 0 0 0 0 0 0 0 0 0 0 0 0 0 0 0 0 0 0 0
0 0 0 0 0 0 0 0 0 0 0 0 0 0 0 0 0 0 0 0 0 0 0 0 0 0 0 0 0 0 0 0 0 0 0 0 0 0 0 0 0 0 0 0 0 0 0 0 0
0 0 0 0 0 0 0 0 0 0 0 0 0 0 0 0 0 0 0 0 0 0 0 0 0 0 0 0 0 0 0 0 0 0 0 0 0 0 0 0 0 0 0 0 0 0 0 0 0
0 0 0 0 0 0 0 0 0 0 0 0 0 0 0 0 0 0 0 0 0 0 0 0 0 0 0 0 0 0 0 0 0 0 0 0 0 0 0 0 0 0 0 0 0 0 0 0 0
0 0 0 0 0 0 0 0 0 0 0 0 0 0 0 0 0 0 0 0 0 0 0 0 0 0 0 0 0 0 0 0 0 0 1 1 0 0 0 0 0 0 0 0 0 0 0 0 0
0 0 0 0 0 0 0 0 0 0 0 0 0 0 0 0 0 0 0 0 0 0 0 0 0 0 0 0 0 0 0 0 0 0 1 1 0 0 0 0 0 0 0 0 0 0 0 0 0
0 0 0 0 0 0 0 0 0 0 0 0 0 0 0 0 0 0 0 0 0 0 0 0 0 0 1 0 0 1 0 0 0 0 1 1 0 0 0 0 0 0 0 0 0 0 0 0 0
0 0 0 0 0 0 0 0 0 0 0 0 0 0 2 4 3 0 0 0 0 0 0 0 0 0 0 0 0 1 1 0 0 0 0 0 0 0 0 0 0 0 0 0 0 0 0 0 0
0 0 0 0 0 0 0 0 0 0 0 0 0 0 5 10 6 1 0 0 0 0 0 0 0 0 0 0 1 1 1 0 0 0 0 0 0 0 0 1 2 1 0 0 0 0 0 0 0
0 0 0 0 0 0 0 0 0 0 0 0 1 3 7 10 7 2 1 0 0 0 0 0 0 0 0 0 1 1 2 3 2 0 0 0 0 0 1 3 5 2 0 0 0 0 0 0 0
0 0 0 0 0 0 0 0 0 0 0 0 7 14 14 10 5 1 1 0 0 0 0 0 0 0 0 0 1 2 5 9 7 2 1 4 5 5 8 12 8 2 0 0 0 0 0 0 0
0 0 0 0 0 0 0 0 0 0 0 0 13 29 30 20 9 1 0 0 0 0 0 0 0 0 0 0 0 2 7 10 10 5 4 11 20 22 26 30 21 9 4 3 2 2 1 0 0
0 0 0 0 0 0 0 0 0 0 0 2 18 37 44 36 21 8 4 1 0 0 0 0 0 0 2 2 2 2 3 4 5 6 5 15 32 40 40 42 34 19 12 10 7 5 2 1 1
0 0 0 0 0 0 0 0 0 0 1 8 28 51 60 55 42 27 13 3 0 0 0 1 3 7 11 10 7 5 2 0 1 3 2 10 28 36 33 31 27 19 16 19 16 10 6 5 4
0 0 0 0 0 0 0 0 0 1 4 19 47 70 79 75 65 46 21 4 2 2 3 5 11 21 29 26 20 15 8 3 3 2 1 3 11 17 16 14 12 14 19 25 25 20 19 19 19
0 0 0 0 0 0 0 0 0 1 6 28 61 83 89 86 76 53 23 5 4 5 8 15 25 39 48 42 32 25 18 14 13 10 6 3 2 5 7 8 8 12 19 23 27 32 38 40 38
0 0 0 0 0 0 0 0 0 1 7 28 60 81 88 88 79 58 34 19 14 13 18 32 48 59 57 44 31 23 20 20 18 15 11 5 2 2 3 4 5 7 11 14 19 31 41 42 42
0 0 0 0 0 0 0 0 0 1 7 24 48 68 81 86 83 72 57 44 34 31 37 51 66 66 50 32 20 13 11 11 11 10 7 4 1 0 0 1 1 2 4 6 9 16 22 25 27
0 0 0 0 0 0 0 0 0 1 7 18 35 56 72 80 85 84 75 60 47 44 51 60 61 47 28 15 8 5 2 2 2 2 1 0 0 0 0 0 0 0 1 3 3 4 5 7 10
0 0 0 0 0 0 0 0 0 1 4 11 26 46 61 70 79 82 73 54 39 37 42 45 37 20 8 3 2 1 0 0 0 0 0 0 0 0 0 0 0 0 0 0 0 0 0 0 1
0 0 0 0 0 0 0 0 0 0 1 5 17 37 55 65 70 68 53 33 21 18 19 19 14 6 2 1 1 1 0 0 0 0 1 2 1 0 0 0 0 0 0 0 0 0 0 0 0
0 0 0 0 0 0 0 0 0 0 0 2 10 28 51 61 58 49 34 18 9 7 7 6 6 9 13 14 13 9 3 0 0 0 2 4 2 0 0 0 0 0 0 0 0 0 0 0 0
0 0 0 0 0 0 0 0 0 0 0 1 7 21 37 44 43 37 28 18 12 8 5 4 8 21 33 35 31 21 8 1 0 0 2 3 2 0 0 0 0 0 0 0 0 0 0 0 0
0 0 0 0 0 0 0 0 0 0 0 1 8 20 30 33 32 30 26 22 17 10 4 3 9 25 41 44 38 28 16 8 4 1 0 0 0 0 0 0 0 0 0 0 0 0 0 0 0
0 0 0 0 0 0 0 0 0 0 0 2 9 21 31 30 23 18 16 14 11 7 4 6 16 30 41 44 43 38 29 19 9 3 0 0 0 0 0 0 0 0 0 0 0 0 0 0 0
0 0 0 0 0 0 0 0 0 0 0 1 6 14 19 16 9 5 4 4 3 3 6 15 31 46 54 57 61 61 51 34 18 8 3 0 0 0 0 0 0 0 0 0 0 0 0 0 0
0 0 0 0 0 0 0 0 0 0 0 0 2 4 4 3 1 0 0 0 0 2 6 15 29 45 55 63 73 78 72 57 36 20 9 2 0 0 0 0 0 0 0 0 0 0 0 0 0
0 0 0 0 0 0 0 0 0 0 0 0 0 0 0 0 0 0 0 0 0 1 3 6 11 20 29 40 54 65 72 71 58 38 20 9 3 0 0 0 0 0 0 0 0 0 0 0 0
0 0 0 0 0 0 0 0 0 0 0 0 0 0 0 0 0 0 0 0 0 0 0 0 1 2 5 11 19 30 43 54 55 44 28 14 6 2 1 0 0 0 0 0 0 0 0 0 0
0 0 0 0 0 0 0 0 0 0 0 0 0 0 0 0 0 0 0 0 0 0 0 0 0 0 0 0 2 7 16 28 37 35 25 14 7 3 2 1 0 0 0 0 0 0 0 0 0

GEFSSGP_con_prob3kmehi_018.txt.gz
EHI
0 0 1 3 2 1 1 1 0 0 0 0 0 0 1 2 2 1 7 25 31 13 3 6 7 3 1 0 0 0 0 0 0 0 0 0 0 0 0 0 0 0 0 0 0 0 0 0 0
0 0 0 1 1 0 0 0 0 0 0 0 0 0 0 1 1 0 6 18 17 7 1 3 4 2 0 0 0 0 0 0 0 0 0 0 0 0 0 0 0 0 0 0 0 0 0 0 0
0 0 0 0 0 0 0 0 0 0 0 0 0 0 0 0 0 0 3 6 4 1 0 1 2 1 0 0 0 0 0 0 0 0 0 0 0 0 0 0 0 0 0 0 0 0 0 0 0
0 0 0 0 0 0 0 0 0 0 0 0 0 0 0 0 0 0 0 0 0 0 0 1 2 1 0 0 0 0 0 0 0 0 0 0 0 0 0 0 0 0 0 0 0 0 0 0 0
0 0 0 0 0 0 0 0 0 0 0 0 0 0 0 0 0 0 0 0 2 3 2 2 2 1 0 0 0 0 0 0 0 0 0 0 0 0 0 0 0 0 0 0 0 0 0 0 0
0 0 0 0 0 0 0 0 0 0 0 0 0 0 0 0 0 0 0 0 6 13 11 4 2 1 0 0 0 0 0 0 0 0 0 0 0 0 0 0 0 0 0 0 0 0 0 0 1
0 0 0 0 0 0 0 0 0 0 0 0 0 0 0 0 0 0 0 0 11 29 27 9 1 0 0 0 0 0 0 0 0 0 0 0 0 0 0 0 0 0 0 0 0 0 0 1 3
0 0 0 0 0 0 0 0 0 0 0 0 0 1 3 3 1 0 0 0 13 41 42 16 1 1 1 0 0 1 2 2 1 0 0 0 0 0 2 3 2 0 0 1 1 1 2 3 5
0 0 0 0 0 0 0 0 0 0 1 6 12 13 11 5 2 0 0 0 9 34 42 23 15 16 7 5 11 11 8 7 4 2 3 3 1 1 7 15 14 10 11 14 15 15 12 8 5
0 0 0 0 0 0 0 0 0 0 6 23 39 36 22 15 10 6 2 1 3 16 24 24 37 40 19 19 37 31 20 25 22 14 17 22 14 5 12 30 37 30 30 36 40 37 28 14 6
0 0 0 0 0 0 0 0 0 0 10 35 51 44 34 31 27 20 13 8 8 9 8 15 43 56 36 38 61 57 47 58 59 45 47 55 45 27 27 47 61 56 51 54 55 50 36 17 7
0 0 0 0 0 0 0 0 0 0 8 24 34 34 37 40 35 30 27 28 35 28 11 14 45 67 58 55 70 78 79 85 86 81 79 82 77 63 58 70 81 77 70 66 62 54 42 25 14
0 0 0 0 0 0 0 0 0 0 3 10 18 27 35 37 33 32 39 56 71 63 38 38 66 85 82 71 73 84 92 93 93 95 95 94 93 88 84 86 89 84 77 73 67 62 54 39 29
0 0 0 0 0 0 0 0 0 0 1 5 13 23 30 33 33 40 58 79 91 87 75 75 88 97 96 88 83 86 92 94 94 96 97 97 98 96 92 89 86 79 72 68 67 63 56 44 35
0 0 0 0 0 0 0 0 0 0 0 2 8 17 27 34 40 57 78 91 96 97 96 95 97 99 100 98 95 92 92 95 97 96 94 94 94 93 92 90 85 77 71 69 65 59 53 44 36
0 0 0 0 0 0 0 0 0 0 0 0 3 11 26 40 53 72 90 95 98 100 100 98 97 98 100 99 96 91 91 94 91 88 88 85 76 73 78 81 76 68 67 65 59 57 57 50 44
0 0 0 0 0 0 0 0 0 0 0 0 2 10 30 53 71 87 97 99 99 99 100 99 98 98 97 95 88 80 80 79 69 67 73 65 46 40 48 53 49 44 44 42 40 48 53 46 41
0 0 0 0 0 0 0 0 0 0 0 0 2 13 37 66 86 95 98 97 96 96 98 98 97 95 93 90 81 70 65 53 39 44 52 38 18 16 21 21 20 18 16 16 20 26 28 24 21
0 0 0 0 0 0 0 0 0 0 1 2 6 19 44 71 88 94 92 89 87 91 93 93 92 88 86 85 77 66 52 31 17 28 36 23 8 7 7 6 5 4 3 4 6 7 7 5 4
0 0 0 0 0 0 0 0 0 2 6 13 17 26 44 62 73 76 74 70 71 75 78 80 82 76 72 70 61 49 37 19 11 26 42 37 24 14 7 4 2 0 0 0 1 2 2 1 0
0 0 0 0 0 0 0 0 2 8 21 33 34 32 35 40 41 42 40 39 41 46 53 63 73 67 58 51 35 25 24 15 14 35 59 64 50 32 19 9 3 1 0 0 1 2 2 1 0
0 0 0 0 0 0 0 1 5 17 36 49 45 30 21 16 13 12 12 12 14 21 35 57 71 69 62 52 37 31 31 25 30 51 72 76 63 45 30 16 7 3 1 0 0 1 1 0 0
0 0 0 0 0 0 0 1 7 24 42 49 38 21 9 4 2 2 2 4 7 13 30 54 70 74 73 70 65 61 56 51 56 70 79 78 66 50 37 25 14 6 1 0 0 0 0 0 0
0 0 0 0 0 0 0 1 11 32 46 39 23 11 4 1 1 2 3 5 8 12 24 41 54 61 67 73 79 82 80 78 81 85 86 83 73 60 48 37 24 11 3 1 0 0 0 1 1
0 0 0 0 0 0 0 3 16 32 36 24 10 3 1 0 1 1 2 4 5 8 13 21 28 33 38 47 61 73 80 84 90 92 92 89 82 75 66 49 31 15 5 2 0 0 0 1 2
0 0 0 0 0 0 3 10 17 18 15 8 3 1 0 0 0 0 1 1 1 3 5 7 8 10 12 17 28 41 50 61 74 85 92 93 90 87 79 61 38 20 8 2 0 0 0 1 2
0 0 0 0 0 0 5 15 14 7 3 1 0 0 0 0 0 0 0 0 0 0 1 2 2 1 1 2 6 12 18 26 39 56 72 83 87 88 84 73 52 28 11 3 0 0 0 0 1
0 0 0 0 0 0 3 9 11 7 2 0 0 0 0 0 0 0 0 0 0 0 0 0 0 0 0 0 0 1 2 5 10 20 37 51 62 71 79 77 61 36 15 5 1 0 0 0 0
0 0 0 0 0 0 0 3 7 6 2 0 0 0 0 0 0 0 0 0 0 0 0 0 0 0 0 0 0 0 0 0 0 3 9 17 26 39 54 61 54 34 14 5 2 0 0 0 0
0 0 0 0 0 0 0 2 4 3 1 0 0 0 0 0 0 0 0 0 0 0 0 0 0 0 0 0 0 0 0 0 0 0 0 1 6 15 29 41 42 27 11 4 1 0 0 0 0

GEFSSGP_con_prob3kmehi_024.txt.gz
EHI
0 0 0 0 0 0 0 0 0 0 0 0 0 0 0 0 0 0 0 0 0 1 6 23 37 32 14 3 0 0 0 0 0 0 0 0 0 0 0 0 0 0 0 0 0 0 0 0 0
0 0 0 0 0 0 0 0 0 0 0 0 0 0 0 0 0 0 0 0 1 1 7 28 51 48 25 6 0 0 0 0 0 0 0 0 0 0 0 0 0 0 0 0 0 0 0 0 0
0 0 0 0 0 0 0 0 0 0 0 0 0 0 0 0 0 0 0 0 1 2 10 37 68 69 42 14 2 0 0 0 0 0 0 0 0 0 0 0 0 0 0 0 0 0 0 0 0
0 0 0 0 0 0 0 0 0 0 0 0 0 0 0 1 1 1 0 0 0 1 11 43 76 80 57 29 10 3 1 0 0 0 0 0 0 0 0 0 0 0 0 0 0 0 0 0 0
0 0 0 0 0 0 0 0 0 0 0 0 0 0 0 2 4 2 0 0 0 0 10 42 76 85 69 45 23 10 3 0 0 0 0 0 0 0 0 0 0 0 0 0 0 0 0 0 0
0 0 0 0 0 0 0 0 0 0 0 0 0 0 0 2 4 2 0 0 0 1 8 31 62 75 69 52 31 16 6 1 0 0 0 0 0 0 0 0 0 0 0 0 0 0 0 0 0
0 0 0 0 0 0 0 0 0 0 0 0 0 0 0 1 2 1 0 0 0 0 6 19 35 47 49 40 27 15 5 0 0 0 0 0 0 0 0 0 0 0 0 0 0 0 0 0 0
0 0 0 0 0 0 0 0 0 1 1 1 1 0 0 0 0 1 3 3 1 0 3 9 16 21 22 20 16 10 3 0 0 0 0 0 0 0 0 0 0 0 0 0 0 0 0 0 0
0 0 0 0 0 0 0 0 0 3 6 6 3 1 0 1 3 7 15 17 9 2 1 4 8 9 8 8 7 4 1 0 0 0 0 0 0 0 0 0 0 0 0 0 0 0 0 0 0
0 0 0 0 0 0 0 0 0 4 11 12 7 2 1 3 7 16 34 43 29 10 1 1 2 4 5 5 3 1 0 0 0 0 0 0 0 0 0 0 0 0 0 0 0 0 1 1 1
0 0 0 0 0 0 0 0 0 3 10 15 11 5 3 6 11 20 40 59 53 28 9 2 1 2 3 3 2 0 0 0 0 0 0 0 0 0 0 0 0 0 0 1 1 3 5 6 4
0 0 0 0 0 0 0 0 0 1 8 16 14 7 6 8 10 16 33 56 65 50 25 8 3 2 2 1 1 0 0 0 0 0 1 2 1 1 0 0 0 0 0 1 2 6 10 9 5
0 0 0 0 0 0 0 0 0 4 15 24 20 11 8 8 9 14 27 45 59 55 35 16 7 5 3 2 2 2 2 3 4 4 6 9 8 4 1 0 0 0 0 1 2 5 8 7 3
0 0 0 0 0 0 0 0 0 7 27 38 28 14 7 7 10 17 25 34 42 42 31 20 15 14 15 18 20 20 20 20 20 17 20 25 22 11 3 0 0 0 0 0 1 2 4 3 1
0 0 0 0 0 0 0 0 0 9 29 40 30 16 11 11 14 18 20 23 26 25 23 21 20 26 36 46 50 52 50 45 38 32 34 37 29 14 4 0 0 0 0 0 0 0 1 2 1
0 0 0 0 0 0 0 0 0 6 21 31 27 23 19 16 15 15 13 14 15 15 15 17 21 30 48 63 71 72 68 57 45 38 36 33 24 11 3 0 0 0 0 0 0 0 0 0 0
0 0 0 0 0 0 0 2 4 10 20 29 33 33 25 16 11 9 7 7 7 7 7 10 16 26 43 58 65 65 57 45 36 30 24 19 13 6 1 0 0 0 0 0 0 0 0 0 0
0 0 0 0 0 0 0 3 9 15 25 33 36 34 23 11 5 3 3 3 2 1 2 5 10 18 29 40 43 39 32 24 19 15 10 6 4 2 0 0 0 0 0 0 0 0 0 0 0
0 0 0 0 0 0 0 3 6 12 20 25 25 21 13 6 1 0 0 0 0 0 1 4 7 10 15 19 19 15 11 8 6 4 2 0 0 0 0 0 0 0 0 0 0 0 0 0 0
0 0 0 0 0 0 0 1 1 4 8 11 11 8 5 2 0 0 0 0 0 0 1 3 4 5 5 7 7 4 2 1 1 0 0 0 0 0 0 0 0 0 0 0 0 0 0 0 0
0 0 0 0 0 0 0 0 0 1 3 4 4 3 2 1 0 0 0 0 0 0 1 1 1 1 2 2 2 1 1 1 1 0 0 0 0 0 0 0 0 0 0 0 0 0 0 0 0
0 0 0 0 0 0 0 0 0 0 1 1 1 1 1 0 0 0 0 0 0 0 0 0 0 0 0 0 0 0 1 1 1 0 0 0 0 0 0 0 0 0 0 0 0 0 0 0 0
0 0 0 0 0 0 0 0 0 0 0 0 0 0 0 0 0 0 0 0 0 0 0 0 0 0 0 0 0 0 1 1 0 1 1 0 0 0 0 0 0 0 0 0 0 0 0 0 0
0 0 0 0 0 0 0 0 0 0 0 0 0 0 0 0 0 0 0 0 0 0 0 0 0 0 0 0 0 0 0 0 0 2 2 1 0 0 0 0 0 0 0 0 0 0 0 0 0
0 0 0 0 0 0 0 0 0 0 0 0 0 0 0 0 0 0 0 0 0 0 0 0 0 0 0 0 0 0 0 0 0 1 1 0 0 0 0 0 0 0 0 0 0 0 0 0 0
0 0 0 0 0 0 0 0 0 0 0 0 0 0 0 0 0 0 0 0 0 0 0 0 0 0 0 0 0 0 0 0 0 0 0 0 0 0 0 0 0 0 0 0 0 0 0 0 0
0 0 0 0 0 0 0 0 0 0 0 0 0 0 0 0 0 0 0 0 0 0 0 0 0 0 0 0 0 0 0 0 0 0 0 0 0 0 0 0 0 0 0 0 0 0 0 0 0
0 0 0 0 0 0 0 0 0 0 0 0 0 0 0 0 0 0 0 0 0 0 0 0 0 0 0 0 0 0 0 0 0 0 0 0 0 0 0 0 0 0 0 0 0 0 0 0 0
0 0 0 0 0 0 0 0 0 0 0 0 0 0 0 0 0 0 0 0 0 0 0 0 0 0 0 0 0 0 0 0 0 0 0 0 0 0 0 0 0 0 0 0 0 0 0 0 0
0 0 0 0 0 0 0 0 0 0 0 0 0 0 0 0 0 0 0 0 0 0 0 0 0 0 0 0 0 0 0 0 0 0 0 0 0 0 0 0 0 0 0 0 0 0 0 0 0

GEFSSGP_con_prob3kmehi_030.txt.gz
EHI
0 0 0 0 0 0 0 0 0 0 0 0 0 0 0 0 0 0 0 0 1 3 5 11 17 15 8 2 0 0 1 3 7 7 5 3 2 1 0 0 0 0 0 0 0 0 0 0 0
0 0 0 0 0 0 0 0 0 0 0 0 0 0 0 0 0 0 0 0 2 4 5 11 22 24 16 7 2 0 0 1 3 3 2 1 1 0 0 0 0 0 0 0 0 0 0 0 0
0 0 0 0 0 0 0 0 0 0 0 0 0 0 0 0 0 0 0 0 2 3 4 16 35 41 30 16 5 0 1 1 0 0 0 0 0 0 0 0 0 0 0 0 0 0 0 0 0
0 0 0 0 0 0 0 0 0 0 0 0 0 0 0 0 0 0 0 0 2 3 6 25 52 60 47 29 13 4 3 2 1 0 0 0 0 0 0 0 0 0 0 0 0 0 0 0 0
0 0 0 0 0 0 0 0 0 0 0 0 0 0 0 0 0 0 0 1 4 7 11 33 64 76 65 47 27 14 9 6 2 1 0 0 0 0 0 0 0 0 0 0 0 0 0 0 0
0 0 0 0 0 0 0 0 0 0 0 0 0 0 0 0 0 0 0 1 6 12 19 37 65 81 80 67 48 34 24 16 8 3 1 0 0 0 0 0 0 0 0 0 0 0 0 0 0
0 0 0 0 0 0 0 0 0 0 0 0 0 0 0 0 0 0 0 2 7 16 27 41 57 74 82 79 66 53 41 28 16 6 2 1 0 0 0 0 0 0 0 0 0 0 0 0 0
0 0 0 0 0 0 0 0 0 0 0 0 0 0 0 2 3 2 1 4 9 17 30 41 50 61 71 72 65 55 43 30 18 8 2 1 0 0 0 0 0 0 0 0 0 0 0 0 0
0 0 0 0 0 0 0 0 0 0 0 0 0 0 3 8 10 7 4 5 9 16 25 34 41 49 56 56 50 42 33 24 16 7 3 2 1 0 0 0 0 0 0 0 0 0 0 0 0
0 0 0 0 0 0 0 0 0 0 0 0 1 5 14 23 23 16 9 6 6 10 16 22 27 34 42 44 38 32 28 24 18 10 5 5 4 1 0 0 0 0 0 0 0 0 0 0 0
0 0 0 0 0 0 0 0 0 0 0 1 3 11 27 38 35 25 16 8 5 5 8 13 17 21 29 34 32 29 30 29 24 17 10 7 5 2 0 0 0 0 0 0 0 0 1 1 1
0 0 0 0 0 0 0 0 0 0 0 2 6 16 31 40 38 30 23 15 10 5 4 8 12 15 20 24 24 23 25 27 26 22 15 10 7 5 2 1 0 0 0 0 0 1 1 0 0
0 0 0 0 0 0 0 0 0 0 1 4 9 17 27 31 31 29 25 19 13 9 6 8 11 14 16 17 15 14 14 16 19 19 16 12 10 8 5 2 1 0 0 0 0 0 0 0 0
0 0 0 0 0 0 0 1 1 1 1 4 9 15 20 21 20 20 18 13 11 11 10 10 9 11 12 12 11 9 7 8 11 13 12 11 9 8 4 1 0 0 0 0 0 0 0 0 0
0 0 0 0 0 0 0 1 2 2 1 2 5 9 11 11 8 7 6 5 7 9 10 9 7 7 8 8 9 7 4 4 6 8 8 6 5 4 2 0 0 0 0 0 0 0 0 0 0
0 0 0 0 0 0 0 1 3 3 1 1 2 4 5 3 2 1 1 1 3 5 5 4 4 6 6 6 6 5 4 2 3 4 4 3 2 1 1 0 0 0 0 0 0 0 0 1 1
0 0 0 0 0 0 0 1 2 1 0 0 1 1 1 1 0 0 0 0 1 2 2 1 2 4 5 5 4 4 4 2 2 2 2 1 1 1 0 0 0 0 0 0 0 0 0 0 0
0 0 0 0 0 0 0 0 0 0 0 0 0 0 0 0 0 0 0 0 0 1 1 0 1 2 3 2 2 3 4 3 3 3 2 1 0 1 1 0 0 0 0 0 0 0 0 0 0
0 0 0 0 0 0 0 0 0 0 0 0 0 0 0 0 0 0 0 0 0 0 0 0 0 1 1 1 1 1 2 2 2 3 2 1 0 0 1 0 0 0 0 0 0 0 0 0 0
0 0 0 0 0 0 0 0 0 0 0 0 0 0 0 0 0 0 0 0 0 0 0 0 0 0 0 0 0 0 0 0 1 2 1 0 0 0 1 0 0 0 0 0 0 0 0 0 0
0 0 0 0 0 0 0 0 0 0 0 0 0 0 0 0 0 0 0 0 0 0 0 0 0 0 0 0 0 0 0 0 0 0 0 0 0 0 0 0 0 0 0 0 0 0 0 0 0
0 0 1 0 0 0 0 0 0 0 0 0 0 0 0 0 0 0 0 0 0 0 0 0 0 0 0 0 0 0 0 0 0 0 0 0 0 0 0 0 0 0 0 0 0 0 0 0 0
0 0 0 0 0 0 0 0 0 0 0 0 0 0 0 0 0 0 0 0 0 0 0 0 0 0 0 0 0 0 0 0 0 0 0 0 0 0 0 0 0 0 0 0 0 0 0 0 0
0 0 0 0 0 0 0 0 0 0 0 0 0 0 0 0 0 0 0 0 0 0 0 0 0 0 0 0 0 0 0 0 0 0 0 0 0 0 0 0 0 0 0 0 0 0 0 0 0
0 0 0 0 0 0 0 0 0 0 0 0 0 0 0 0 0 0 0 0 0 0 0 0 0 0 0 0 0 0 0 0 0 0 0 0 0 0 0 0 0 0 0 0 0 0 0 0 0
0 0 0 0 0 0 0 0 0 0 0 0 0 0 0 0 0 0 0 0 0 0 0 0 0 0 0 0 0 0 0 0 0 0 0 0 0 0 0 0 0 0 0 0 0 0 0 0 0
0 0 0 0 0 0 0 0 0 0 0 0 0 0 0 0 0 0 0 0 0 0 0 0 0 0 0 0 0 0 0 0 0 0 0 0 0 0 0 0 0 0 0 0 0 0 0 0 0
0 0 0 0 0 0 0 0 0 0 0 0 0 0 0 0 0 0 0 0 0 0 0 0 0 0 0 0 0 0 0 0 0 0 0 0 0 0 0 0 0 0 0 0 0 0 0 0 0
0 0 0 0 0 0 0 0 0 0 0 0 0 0 0 0 0 0 0 0 0 0 0 0 0 0 0 0 0 0 0 0 0 0 0 0 0 0 0 0 0 0 0 0 0 0 0 0 0
0 0 0 0 0 0 0 0 0 0 0 0 0 0 0 0 0 0 0 0 0 0 0 0 0 0 0 0 0 0 0 0 0 0 0 0 0 0 0 0 0 0 0 0 0 0 0 0 0

GEFSSGP_con_prob3kmehi_036.txt.gz
EHI
0 0 0 0 0 0 0 0 0 0 0 0 0 0 0 0 0 0 1 2 7 23 34 22 7 2 0 0 1 4 11 18 28 40 40 26 10 2 1 0 0 0 0 0 0 0 0 0 0
0 0 0 0 0 0 0 0 0 0 0 0 0 0 0 0 0 0 0 1 4 16 26 21 9 3 0 0 0 3 7 11 19 26 26 17 7 1 0 0 0 0 0 0 0 0 0 0 0
0 0 0 0 0 0 0 0 0 0 0 0 0 0 0 0 0 0 0 0 2 9 19 20 11 3 0 0 0 1 2 4 6 9 9 6 3 1 0 0 0 0 0 0 0 0 0 0 0
0 0 0 0 0 0 0 0 0 0 0 0 0 0 0 0 0 0 0 0 1 6 14 17 10 2 0 0 0 0 1 1 1 1 1 1 1 0 0 0 0 0 0 0 0 0 0 0 0
0 0 0 0 0 0 0 0 0 0 0 0 0 0 0 0 0 0 0 0 1 2 8 12 8 2 1 0 0 0 0 0 0 0 0 0 0 0 0 0 0 0 0 0 0 0 0 0 0
0 0 0 0 0 0 0 0 0 0 0 0 0 0 0 0 0 0 0 0 0 0 5 9 6 2 1 0 1 1 1 1 0 0 0 0 0 0 0 0 0 0 0 0 0 0 0 0 0
0 0 0 0 0 0 0 0 0 0 0 0 0 0 2 6 7 5 2 0 0 0 2 5 4 3 4 5 7 7 7 6 5 4 2 1 1 0 0 0 0 0 0 0 0 0 0 0 0
0 0 0 0 0 0 0 0 0 0 0 0 0 1 9 22 28 23 15 7 3 2 2 2 3 6 10 14 19 21 21 18 13 10 7 5 2 0 0 0 1 1 0 0 0 0 0 0 0
0 0 0 0 0 0 0 0 0 0 0 0 1 4 18 38 49 46 35 23 14 9 6 5 8 13 15 20 28 33 34 31 22 15 14 10 5 1 1 5 8 5 1 0 0 0 0 0 0
0 0 0 0 0 0 0 0 0 1 1 2 2 6 19 35 46 47 42 34 25 17 12 11 15 19 19 22 31 37 41 42 35 26 24 24 18 11 10 15 18 9 2 0 0 0 0 1 1
0 0 0 0 0 0 0 0 1 3 5 8 8 8 13 21 27 33 36 33 25 19 15 16 20 21 22 25 31 37 43 48 48 43 43 46 46 39 33 32 28 19 11 6 6 6 4 3 3
0 0 0 0 0 0 0 0 2 5 8 15 20 20 20 24 30 36 40 34 26 20 18 18 21 24 26 29 31 34 41 45 48 54 58 63 66 63 59 55 46 34 26 18 15 16 11 6 6
0 0 0 0 0 0 0 0 2 5 8 16 28 37 42 46 51 55 51 43 34 27 22 18 20 24 28 31 32 32 36 37 39 48 57 61 65 67 67 68 61 46 33 25 22 19 14 11 11
0 0 0 0 0 0 0 0 1 3 6 12 23 35 43 48 51 52 47 41 36 30 23 17 14 16 21 24 25 26 29 29 28 34 44 48 51 57 58 58 55 44 33 32 27 19 14 13 14
0 0 0 0 0 0 0 0 0 1 3 7 13 19 24 26 27 28 28 28 26 24 21 15 8 6 8 10 12 15 17 17 17 23 29 32 35 42 44 42 38 36 35 38 34 23 14 11 9
0 0 0 0 0 0 0 0 0 0 1 4 6 8 9 9 9 10 13 16 15 15 15 11 6 3 2 3 5 7 7 7 10 16 20 20 20 25 31 31 27 27 30 33 30 22 13 8 6
0 0 0 0 0 0 0 0 0 0 0 1 2 3 3 3 3 3 5 7 8 8 8 8 6 3 2 2 4 5 5 5 7 11 14 13 10 11 18 22 20 19 21 20 17 14 11 8 6
0 0 0 0 0 0 0 0 0 0 0 0 0 0 0 0 0 0 0 2 3 4 4 5 4 3 1 2 3 3 3 3 3 7 9 8 5 4 8 13 15 15 13 11 10 9 8 5 4
0 0 0 0 0 0 0 0 0 0 0 0 0 0 0 0 0 0 0 0 1 2 2 2 2 1 1 2 2 1 1 1 1 2 3 3 2 3 6 10 14 14 10 8 7 6 5 2 1
0 0 0 0 0 0 0 0 0 0 0 0 0 0 0 0 0 0 0 0 0 1 1 1 1 0 0 1 1 0 0 0 0 0 0 0 0 2 5 8 11 13 11 7 5 4 2 1 0
0 0 0 1 0 0 0 0 0 0 0 0 0 0 0 0 0 0 0 0 0 0 0 0 0 0 0 0 0 0 0 0 0 0 0 0 0 1 3 5 7 9 9 6 3 1 1 0 0
0 0 1 2 1 0 0 0 0 0 0 0 0 0 0 0 0 0 0 0 0 0 0 0 0 0 0 0 0 0 0 0 0 0 0 0 0 1 1 2 3 4 4 3 2 1 0 0 0
0 0 1 1 0 0 0 0 0 0 0 0 0 0 0 0 0 0 0 0 0 0 0 0 0 0 0 0 0 0 0 0 0 0 0 0 0 0 0 0 1 1 0 0 0 0 0 0 0
0 0 0 0 0 0 0 1 2 2 0 0 0 0 0 0 0 0 0 0 0 0 0 0 0 0 0 0 0 0 0 0 0 0 0 0 0 0 0 0 0 0 0 0 0 0 0 0 0
0 0 0 0 0 0 0 3 6 4 1 0 0 0 0 0 0 0 0 0 0 0 0 0 0 0 0 0 0 0 0 0 0 0 0 0 0 0 0 0 0 0 0 0 0 0 0 0 0
0 0 0 0 0 0 0 3 5 3 0 0 0 0 0 0 0 0 0 0 0 0 0 0 0 0 0 0 0 0 0 0 0 0 0 0 0 0 0 0 0 0 0 0 0 0 0 0 0
0 0 0 0 0 0 0 1 2 1 0 0 0 0 0 0 0 0 0 0 0 0 0 0 0 0 0 0 0 0 0 0 0 0 0 0 0 0 0 0 0 0 0 0 0 0 0 0 0
0 0 0 0 0 0 0 0 0 0 0 0 0 0 0 0 0 0 0 0 0 0 0 0 0 0 0 0 0 0 0 0 0 0 0 0 0 0 0 0 0 0 0 0 0 0 0 0 0
0 0 0 0 0 0 0 0 0 0 0 0 0 0 0 0 0 0 0 0 0 0 0 0 0 0 0 0 0 0 0 0 0 0 0 0 0 0 0 0 0 0 0 0 0 0 0 0 0
0 0 0 0 0 0 0 0 0 0 0 0 0 0 0 0 0 0 0 0 0 0 0 0 0 0 0 0 0 0 0 0 0 0 0 0 0 0 0 0 0 0 0 0 0 0 0 0 0

GEFSSGP_con_prob3kmehi_042.txt.gz
EHI
0 0 1 2 4 7 7 3 0 0 0 0 0 0 0 0 0 1 11 43 72 60 32 24 24 16 9 5 2 1 0 0 0 1 0 0 0 0 0 0 0 0 0 0 0 0 0 0 0
0 0 1 2 4 5 3 1 0 0 0 0 0 0 0 0 0 1 12 41 62 46 21 16 16 12 8 6 5 3 2 1 1 2 2 1 1 0 0 0 0 0 0 0 0 0 0 0 0
0 0 0 2 4 3 1 0 0 0 0 0 0 0 0 0 0 1 11 37 53 38 19 15 12 9 7 6 6 5 4 3 2 3 4 3 2 1 0 0 0 0 0 0 0 0 0 0 0
0 0 0 2 3 2 0 0 0 0 0 0 1 1 1 0 0 1 10 33 49 41 29 24 17 9 5 4 4 4 4 4 4 4 5 5 3 1 0 0 0 0 0 1 1 0 0 0 0
0 0 0 1 1 0 0 0 0 0 0 0 3 5 4 1 0 1 10 26 40 46 42 33 24 13 5 3 2 2 2 2 3 3 4 4 2 0 0 0 0 1 2 4 3 1 0 0 0
0 0 0 0 0 0 0 0 0 0 0 0 5 10 8 2 1 1 6 14 32 54 55 38 25 15 5 2 2 1 1 1 1 2 3 3 2 0 0 1 2 4 8 11 11 6 2 1 1
0 0 0 0 0 0 0 0 0 0 1 2 9 15 10 3 1 1 2 7 29 60 60 34 17 11 4 1 1 1 2 3 2 1 1 1 1 1 1 4 7 11 16 21 19 13 7 5 5
0 0 0 0 0 0 0 0 0 2 7 13 21 24 16 5 1 0 0 5 24 50 51 28 15 10 5 6 9 8 7 7 4 2 2 3 2 2 3 7 13 22 29 30 27 22 19 17 14
0 0 0 0 0 0 0 0 0 6 19 30 34 32 21 9 4 4 4 7 18 33 36 30 27 22 14 19 28 23 16 15 11 9 11 10 6 3 5 15 29 41 45 43 37 35 35 31 23
0 0 0 0 0 0 0 0 2 10 27 39 40 33 23 18 17 18 18 18 21 28 33 37 42 42 35 40 47 36 25 28 26 22 26 28 21 14 14 31 55 65 62 57 52 49 47 38 26
0 0 0 0 0 0 0 2 7 18 31 40 43 41 38 38 41 44 43 41 40 41 45 49 56 62 61 62 61 46 37 42 44 39 43 49 45 36 33 49 74 82 75 67 62 58 51 37 26
0 0 0 0 0 0 0 3 10 20 29 39 50 59 63 64 68 72 72 70 67 65 65 67 71 76 75 71 65 56 51 53 55 54 56 61 62 55 52 60 75 82 78 69 62 59 51 38 30
0 0 0 0 0 0 0 2 7 15 24 38 55 69 80 84 88 90 90 89 86 82 80 79 77 75 71 66 61 59 61 59 58 60 62 63 65 63 59 59 62 65 64 60 53 48 44 39 36
0 0 0 0 0 0 0 1 7 15 25 36 50 63 77 86 91 93 92 89 86 82 80 77 69 63 62 60 60 60 58 56 55 59 62 60 59 58 55 51 49 47 45 42 39 33 32 34 34
0 0 0 0 0 0 1 4 12 20 25 28 32 43 58 68 76 78 76 72 70 69 70 66 56 52 55 57 58 55 50 46 48 51 55 54 48 45 44 43 41 39 34 29 25 23 23 24 24
0 0 0 0 0 0 3 10 16 19 19 16 16 23 34 41 46 48 46 47 50 53 57 54 46 43 44 43 42 38 35 35 35 38 41 41 37 31 31 34 35 32 28 21 17 16 16 16 16
0 0 0 0 0 0 6 14 16 14 12 9 7 9 14 17 18 18 19 24 31 37 41 39 35 31 27 22 20 19 20 22 25 27 28 27 24 20 20 23 25 23 19 14 10 10 11 10 10
0 0 0 0 0 1 8 15 13 8 7 5 3 3 4 4 3 3 5 9 14 19 21 21 20 19 14 9 7 8 10 14 16 20 20 16 12 11 10 11 13 13 11 7 5 5 6 6 6
0 0 0 0 0 1 7 12 10 6 5 3 1 1 1 1 0 0 0 2 4 6 7 6 7 8 7 5 4 4 6 8 10 12 11 7 4 4 4 4 6 7 5 3 1 1 2 2 3
0 0 0 1 0 1 4 7 8 5 3 2 1 0 0 0 0 0 0 0 0 1 1 1 1 3 4 3 2 1 1 2 4 5 5 2 1 1 1 3 4 4 2 1 0 0 0 1 1
0 0 0 0 0 0 1 4 7 5 1 1 1 0 0 0 0 0 0 0 0 0 0 1 3 4 6 4 1 0 0 0 1 1 1 1 0 0 0 1 3 3 1 0 0 0 0 0 0
0 0 0 0 0 0 0 3 6 3 0 0 0 0 0 0 1 1 1 0 0 0 0 3 8 11 9 5 1 0 0 0 0 0 0 0 0 0 0 0 1 1 1 0 1 1 1 0 0
0 0 0 0 0 0 0 1 2 1 0 0 0 0 0 0 1 2 1 0 0 0 0 4 11 14 11 6 2 0 0 0 0 0 0 0 0 0 0 0 0 0 0 0 1 2 2 1 0
0 0 0 0 0 0 0 1 2 1 0 0 1 0 0 0 1 1 1 0 0 0 0 3 7 10 9 6 3 1 0 0 0 0 0 0 0 0 0 0 0 0 0 0 1 1 1 1 0
0 0 0 0 0 0 0 1 3 3 1 0 0 0 0 0 0 0 0 0 0 0 0 1 2 4 5 4 2 1 0 0 0 0 0 0 0 0 0 0 0 0 0 0 0 0 0 0 0
0 0 0 0 0 0 2 5 6 3 0 0 0 0 0 0 0 0 0 0 0 0 0 0 0 1 1 1 1 0 0 0 0 0 0 0 0 0 0 0 0 0 0 0 0 0 0 0 0
0 0 0 0 0 0 3 7 6 2 0 0 0 0 0 0 0 0 0 0 0 0 0 0 0 0 0 0 0 0 0 0 0 0 0 0 0 0 0 0 0 0 0 0 0 0 0 0 0
0 0 0 0 0 0 2 3 3 1 0 0 0 0 0 0 0 0 0 0 0 0 0 0 0 0 0 0 0 0 0 0 0 0 0 0 0 0 0 0 0 0 0 0 0 0 0 0 0
0 0 0 0 0 0 0 0 0 0 0 0 0 0 0 0 0 0 0 0 0 0 0 0 0 0 0 0 0 0 0 0 0 0 0 0 0 0 0 0 0 0 0 0 0 0 0 0 0
0 0 0 0 0 0 0 0 0 0 0 0 0 0 0 0 0 0 0 0 0 0 0 0 0 0 0 0 0 0 0 0 0 0 0 0 0 0 0 0 0 0 0 0 0 0 0 0 0

GEFSSGP_con_prob3kmehi_048.txt.gz
EHI
4 2 0 0 0 0 0 0 0 0 0 0 0 0 0 0 0 0 2 14 35 44 40 47 62 73 77 67 43 25 15 8 3 0 0 0 0 0 0 0 0 0 0 0 0 0 0 0 0
2 1 0 0 0 0 0 0 0 0 0 0 0 0 0 0 0 0 2 13 32 39 36 43 60 72 77 72 54 35 21 12 5 1 0 0 0 0 0 0 0 0 0 0 0 0 0 0 0
0 0 0 0 0 1 2 1 1 1 0 0 0 0 0 0 1 1 3 11 23 27 27 40 60 72 77 78 69 51 32 18 8 3 1 0 0 0 0 0 0 0 0 0 0 0 0 0 0
0 0 0 0 1 3 4 4 4 3 1 1 1 0 0 2 5 6 5 9 15 16 19 35 55 66 72 77 75 62 42 23 9 3 1 0 0 0 0 0 0 0 0 0 0 1 1 0 0
0 0 0 0 0 2 3 4 8 9 6 3 2 1 1 7 17 16 7 6 9 10 13 26 42 53 61 68 67 57 40 22 10 5 3 1 0 0 0 0 0 0 0 0 1 2 2 1 0
0 0 0 0 0 0 1 5 12 17 15 9 5 3 2 11 24 23 12 5 4 5 7 15 25 36 45 50 49 41 29 18 9 5 3 1 0 1 0 0 0 0 0 1 2 3 3 1 0
0 0 0 0 0 0 2 9 20 28 27 17 8 6 5 12 24 31 25 14 5 2 2 5 10 17 25 30 28 24 20 15 8 3 1 0 0 1 1 1 2 1 1 2 5 8 7 5 4
0 0 0 0 0 0 4 14 27 37 36 25 16 13 12 18 34 46 44 32 17 7 2 1 2 5 9 12 13 13 13 11 6 2 1 1 1 1 2 3 3 3 4 7 12 17 19 17 14
0 0 0 0 0 1 6 15 25 36 42 37 31 28 28 35 53 65 62 50 35 20 9 6 4 3 2 3 5 5 6 6 5 3 3 3 3 3 4 4 5 5 7 11 20 30 36 34 29
0 0 0 0 0 2 9 14 17 27 41 45 44 45 48 56 70 78 75 65 53 38 25 19 15 10 7 6 5 4 3 3 5 5 5 5 6 6 5 5 5 7 9 13 22 35 45 45 42
0 0 0 0 0 3 10 16 17 23 35 43 50 57 63 71 79 85 84 77 69 60 49 42 37 30 24 20 15 10 6 7 10 11 9 7 8 7 6 5 4 8 14 18 23 32 39 43 44
0 0 0 0 1 5 15 25 29 28 32 44 56 64 71 76 81 84 83 80 77 72 66 61 57 50 42 35 26 19 15 15 18 16 14 14 12 9 6 4 4 7 15 21 24 25 29 33 35
0 0 0 0 1 9 23 34 36 31 34 45 56 65 71 74 76 75 73 71 68 64 61 59 56 52 45 36 28 23 20 18 17 15 16 19 17 11 5 3 2 4 11 16 17 17 19 23 25
0 0 0 0 2 12 29 37 32 27 30 40 48 54 59 61 61 58 54 51 47 44 42 41 38 35 30 25 21 18 15 12 9 9 13 15 13 8 4 1 1 1 4 8 8 9 11 13 15
0 0 0 0 1 8 25 33 27 22 25 31 34 36 38 39 40 39 34 29 26 24 23 22 19 16 14 13 12 10 7 4 3 5 7 8 6 4 3 1 0 1 2 3 4 4 5 6 7
0 0 0 0 0 4 15 23 22 19 19 19 17 17 18 18 20 22 19 15 11 9 8 7 6 4 4 6 7 5 2 1 1 2 4 4 3 3 2 1 1 1 2 2 2 3 2 2 2
0 0 0 0 0 1 6 12 14 14 12 7 4 4 5 6 8 10 9 6 3 1 1 0 1 1 1 2 2 1 0 0 0 1 1 2 1 1 1 1 0 1 1 1 1 1 1 0 0
0 0 0 0 0 0 2 6 8 10 8 4 0 0 1 2 3 2 2 1 1 0 0 0 0 0 0 0 0 0 0 0 0 0 0 0 0 0 0 0 0 0 0 0 0 0 0 0 0
0 0 0 0 0 1 2 2 4 7 7 3 0 0 0 0 0 0 0 0 0 0 0 0 0 0 0 0 0 0 0 0 0 0 0 0 0 0 0 0 0 0 0 0 0 0 0 0 0
0 0 0 0 1 2 2 1 1 3 3 2 0 0 0 0 0 0 0 0 0 0 0 0 0 0 0 0 0 0 0 0 0 0 0 0 0 0 0 0 0 0 0 0 0 0 0 0 0
0 0 0 0 1 2 2 1 0 1 1 0 0 0 0 0 0 0 0 0 0 0 0 0 1 0 0 0 0 0 0 0 0 0 0 0 0 0 0 0 0 0 0 0 0 0 0 0 0
0 0 0 0 0 1 1 0 0 0 0 0 0 0 0 0 0 0 0 0 0 0 0 0 0 0 0 0 0 0 0 0 0 0 0 0 0 0 0 0 0 0 0 0 0 0 0 0 0
0 0 0 0 0 0 0 0 0 0 0 0 0 0 0 0 1 0 0 0 0 0 0 0 0 0 0 0 0 0 0 0 0 0 0 0 0 0 0 0 0 0 0 0 0 0 0 0 0
0 0 0 0 0 0 0 0 0 0 0 0 0 0 0 0 0 0 0 0 0 0 0 0 0 0 0 0 0 0 0 0 0 0 0 0 0 0 0 0 0 0 0 0 0 0 0 0 0
0 0 0 0 0 0 0 0 0 0 0 0 0 0 0 0 0 0 0 0 0 0 0 0 0 0 0 0 0 0 0 0 0 0 0 0 0 0 0 0 0 0 0 0 0 0 0 0 0
0 0 0 0 0 0 0 0 0 0 0 0 0 0 0 0 0 0 0 0 0 0 0 0 0 0 0 0 0 0 0 0 0 0 0 0 0 0 0 0 0 0 0 0 0 0 0 0 0
0 0 0 0 0 0 0 0 0 0 0 0 0 0 0 0 0 0 0 0 0 0 0 0 0 0 0 0 0 0 0 0 0 0 0 0 0 0 0 0 0 0 0 0 0 0 0 0 0
0 0 0 0 0 0 0 0 0 0 0 0 0 0 0 0 0 0 0 0 0 0 0 0 0 0 0 0 0 0 0 0 0 0 0 0 0 0 0 0 0 0 0 0 0 0 0 0 0
0 0 0 0 0 0 0 0 0 0 0 0 0 0 0 0 0 0 0 0 0 0 0 0 0 0 0 0 0 0 0 0 0 0 0 0 0 0 0 0 0 0 0 0 0 0 0 0 0
0 0 0 0 0 0 0 0 0 0 0 0 0 0 0 0 0 0 0 0 0 0 0 0 0 0 0 0 0 0 0 0 0 0 0 0 0 0 0 0 0 0 0 0 0 0 0 0 0

GEFSSGP_con_prob3kmehi_054.txt.gz
EHI
1 1 0 0 0 0 0 0 0 0 0 0 0 2 5 4 1 0 0 1 4 4 2 2 11 32 54 66 67 64 59 55 51 46 41 36 28 18 9 4 2 1 0 0 0 0 0 0 0
1 0 0 0 0 0 0 0 0 0 0 0 0 1 4 3 1 0 0 2 6 5 2 3 12 30 49 62 66 63 56 49 41 33 27 24 18 11 5 2 1 0 0 0 0 0 0 0 0
0 0 0 0 0 0 0 0 0 0 0 0 0 0 1 1 0 0 1 5 10 7 2 4 14 28 45 59 65 63 54 43 32 21 15 12 8 3 1 0 0 0 0 0 0 0 0 0 0
0 0 0 0 0 0 0 1 0 0 0 0 0 0 0 0 0 0 3 10 14 9 3 6 17 31 45 57 63 61 51 40 28 17 11 8 4 1 0 0 0 0 0 0 0 0 0 0 0
0 0 0 0 0 0 2 3 3 3 2 1 0 0 0 0 0 0 3 10 15 11 5 7 18 32 43 51 53 52 45 34 22 13 9 5 1 0 0 0 0 0 0 0 0 0 0 0 0
0 0 0 0 0 1 4 8 10 11 9 5 2 1 2 1 0 0 2 6 10 10 7 8 14 24 33 36 36 35 34 28 18 9 5 2 0 0 0 0 0 0 0 0 0 0 0 0 0
0 0 0 0 0 1 3 9 15 17 15 9 4 3 3 4 3 1 1 2 4 5 6 7 10 15 20 22 22 22 23 21 15 8 3 1 0 0 0 0 0 0 0 0 0 0 0 0 1
0 0 0 0 0 0 2 7 13 17 15 10 7 5 6 10 11 9 7 5 4 2 3 5 8 11 13 14 14 15 16 14 11 8 4 2 1 1 0 0 0 0 0 0 0 0 0 1 3
0 0 0 0 0 0 1 5 9 13 16 17 17 18 21 25 25 23 19 12 8 5 3 3 5 8 10 11 10 11 11 10 9 8 6 4 3 2 1 1 0 0 0 0 0 1 1 3 4
0 0 0 0 0 0 1 3 6 13 22 27 32 41 47 46 44 39 30 19 12 8 5 3 2 4 8 9 8 6 6 6 7 7 8 6 4 4 4 4 2 1 1 1 1 2 3 4 6
0 0 0 0 0 0 1 4 10 21 30 34 41 54 64 63 58 51 40 26 17 14 9 5 3 4 6 6 5 5 4 4 4 5 7 7 6 6 6 6 5 4 3 3 3 4 5 5 5
0 0 0 1 2 5 9 15 23 31 36 38 43 53 63 66 60 52 44 34 27 22 16 9 5 5 5 4 5 6 4 3 3 3 4 7 8 7 7 7 6 5 4 4 3 3 4 4 4
0 0 1 4 8 17 27 32 34 35 36 39 42 47 54 56 50 42 39 37 31 24 15 8 5 5 4 3 4 4 4 3 2 2 3 6 8 7 7 7 5 4 4 3 3 2 3 4 5
0 0 1 5 12 24 35 37 33 28 29 33 36 36 37 38 34 29 27 27 24 15 7 3 2 2 2 1 1 2 1 1 1 1 1 4 5 5 5 5 3 2 2 3 2 2 2 4 5
0 0 0 3 7 16 25 26 21 19 22 26 26 23 20 20 18 16 14 13 11 6 2 1 0 0 0 0 0 1 0 0 0 0 0 1 1 1 2 1 1 1 1 1 1 1 2 3 4
0 0 0 0 1 5 10 12 11 12 16 18 15 12 10 9 7 6 5 5 4 2 1 1 0 0 0 0 0 0 0 0 0 0 0 0 0 0 0 0 0 0 0 0 0 0 1 1 2
0 0 0 0 0 1 3 5 7 8 10 10 8 6 5 4 2 1 1 1 1 0 0 0 0 0 0 0 0 0 0 0 0 0 0 0 0 0 0 0 0 0 0 0 0 0 0 0 1
0 0 0 0 0 0 1 4 6 5 5 5 4 3 2 1 0 0 0 0 0 0 0 0 0 0 0 0 0 0 0 0 0 0 0 0 0 0 0 0 0 0 0 0 0 0 0 0 0
0 0 0 0 0 0 1 3 4 3 2 2 2 1 0 0 0 0 0 0 0 0 0 0 0 0 0 0 0 0 0 0 0 0 0 0 0 0 0 0 0 0 0 0 0 0 0 0 0
0 0 0 0 0 0 0 1 1 2 2 1 1 0 0 0 0 0 0 0 0 0 0 0 0 0 0 0 0 0 0 0 0 0 0 0 0 0 0 0 0 0 0 0 0 0 0 0 0
0 0 0 0 0 0 0 0 0 1 2 1 0 0 0 0 0 0 0 0 0 0 0 0 0 0 0 0 0 0 0 0 0 0 0 0 0 0 0 0 0 0 0 0 0 0 0 0 0
0 0 0 0 0 0 0 0 0 1 1 0 0 0 0 0 0 0 0 0 0 0 0 0 0 0 0 0 0 0 0 0 0 0 0 0 0 0 0 0 0 0 0 0 0 0 0 0 0
0 0 0 0 0 0 0 0 0 0 0 0 0 0 0 0 0 0 0 0 0 0 0 0 0 0 0 0 0 0 0 0 0 0 0 0 0 0 0 0 0 0 0 0 0 0 0 0 0
0 0 0 0 0 0 0 0 0 0 0 0 0 0 0 0 0 0 0 0 0 0 0 0 0 0 0 0 0 0 0 0 0 0 0 0 0 0 0 0 0 0 0 0 0 0 0 0 0
0 0 0 0 0 0 0 0 0 0 0 0 0 0 0 0 0 0 0 0 0 0 0 0 0 0 0 0 0 0 0 0 0 0 0 0 0 0 0 0 0 0 0 0 0 0 0 0 0
0 0 0 0 0 0 0 0 0 0 0 0 0 0 0 0 0 0 0 0 0 0 0 0 0 0 0 0 0 0 0 0 0 0 0 0 0 0 0 0 0 0 0 0 0 0 0 0 0
0 0 0 0 0 0 0 0 0 0 0 0 0 0 0 0 0 0 0 0 0 0 0 0 0 0 0 0 0 0 0 0 0 0 0 0 0 0 0 0 0 0 0 0 0 0 0 0 0
0 0 0 0 0 0 0 0 0 0 0 0 0 0 0 0 0 0 0 0 0 0 0 0 0 0 0 0 0 0 0 0 0 0 0 0 0 0 0 0 0 0 0 0 0 0 0 0 0
0 0 0 0 0 0 0 0 0 0 0 0 0 0 0 0 0 0 0 0 0 0 0 0 0 0 0 0 0 0 0 0 0 0 0 0 0 0 0 0 0 0 0 0 0 0 0 0 0
0 0 0 0 0 0 0 0 0 0 0 0 0 0 0 0 0 0 0 0 0 0 0 0 0 0 0 0 0 0 0 0 0 0 0 0 0 0 0 0 0 0 0 0 0 0 0 0 0

GEFSSGP_con_prob3kmehi_060.txt.gz
EHI
3 1 0 0 0 0 0 0 0 0 0 0 0 0 1 1 1 1 0 0 0 0 0 0 1 2 5 10 17 28 40 47 50 51 47 36 22 11 4 2 2 1 0 0 0 0 0 0 0
1 0 0 0 0 0 0 0 0 0 0 0 0 1 2 2 2 1 0 0 0 0 0 0 1 2 4 8 17 28 36 40 42 43 39 29 17 8 3 1 1 0 0 0 0 0 0 0 0
0 0 0 0 0 0 0 0 0 0 0 0 0 1 3 3 2 1 0 0 0 0 0 0 1 1 3 6 14 24 29 29 28 27 23 16 9 4 1 0 0 0 0 0 0 0 0 0 0
0 0 0 0 0 0 0 0 0 0 0 0 1 2 3 2 1 0 0 0 0 0 0 0 1 1 1 4 9 16 19 18 15 13 10 6 3 1 0 0 0 0 0 0 0 0 0 0 0
0 0 0 0 0 0 0 0 0 0 0 0 1 3 4 2 1 0 0 0 0 0 0 0 1 0 1 2 5 8 10 9 8 7 5 4 2 1 0 0 0 0 0 0 0 0 0 0 0
0 0 0 0 0 0 0 0 0 1 1 1 2 3 5 6 3 2 1 1 1 0 0 0 1 0 0 1 2 5 7 8 7 6 4 3 2 1 0 0 0 0 0 0 0 0 0 0 0
0 0 0 0 0 0 0 2 4 4 3 2 2 3 7 10 8 4 3 3 2 1 0 0 1 0 0 0 2 4 7 9 8 5 3 2 1 1 1 1 1 0 0 0 0 0 0 0 0
0 0 0 0 0 0 2 5 9 8 6 5 5 8 17 23 19 13 10 6 4 1 0 0 1 1 1 2 4 6 7 8 6 3 2 1 1 2 2 3 2 1 0 0 0 0 0 0 0
0 0 0 0 0 0 3 7 9 9 10 12 16 26 39 42 33 23 15 8 5 2 1 1 1 1 1 2 4 6 6 5 3 2 1 1 2 3 4 5 5 3 2 1 0 0 0 1 1
0 0 0 0 0 0 2 5 5 6 12 19 31 47 56 51 38 25 15 7 4 3 3 2 1 1 2 3 5 8 8 6 3 2 1 2 4 6 7 8 7 6 4 2 1 1 1 3 4
0 0 0 0 0 0 1 3 4 7 15 27 41 53 56 51 40 28 16 9 7 6 6 5 5 5 6 8 10 11 11 10 8 6 5 7 10 11 10 10 10 9 8 5 4 4 4 5 9
0 0 0 0 0 0 1 4 8 17 27 36 45 50 52 51 43 31 22 17 15 13 11 11 12 14 17 19 18 13 10 10 11 10 8 11 14 13 13 14 13 13 14 11 9 10 8 8 11
0 0 0 0 1 0 1 7 17 29 38 44 48 50 50 48 42 33 26 23 22 21 20 19 19 23 27 29 25 15 8 7 8 7 7 8 10 10 12 14 14 15 17 15 12 12 11 10 12
0 0 0 0 0 0 2 9 23 35 42 47 51 53 49 43 37 32 26 23 24 26 25 23 22 25 26 25 21 14 6 3 2 3 3 4 6 7 7 8 9 12 15 13 10 9 11 11 11
0 0 0 0 0 0 2 10 22 32 39 46 51 51 45 36 30 25 22 20 22 26 24 19 18 20 18 13 9 6 3 1 0 1 2 3 5 5 4 3 3 5 8 9 8 8 10 10 9
0 0 0 0 0 0 1 8 18 24 30 38 42 42 38 31 23 18 17 17 20 22 18 10 7 10 9 5 1 1 1 0 0 0 1 1 3 3 2 1 0 1 3 5 6 8 10 9 7
0 0 0 0 0 0 1 6 13 18 22 28 30 30 29 23 16 13 13 14 15 15 10 4 1 2 2 1 0 0 0 0 0 0 0 0 1 1 1 0 0 0 1 3 4 6 8 7 5
0 0 0 0 0 0 1 5 11 15 16 18 19 20 19 14 9 9 9 9 8 7 4 1 0 1 0 0 0 0 0 0 0 0 0 0 0 0 0 0 0 0 0 1 2 4 4 4 4
0 0 0 0 0 0 1 5 10 12 12 10 9 11 10 8 6 6 5 4 3 2 1 0 1 1 0 0 0 0 0 0 0 0 0 0 0 0 0 0 0 0 0 0 1 2 2 2 2
0 0 0 0 0 0 1 5 8 9 9 6 5 6 6 5 3 2 1 1 1 1 0 1 3 3 2 2 1 2 2 1 0 0 0 0 0 0 0 0 0 0 0 0 0 1 1 1 1
0 0 0 0 0 0 1 3 5 6 7 7 5 5 4 2 1 0 0 0 1 1 2 3 7 8 7 6 5 4 4 2 1 0 0 0 0 0 0 0 0 0 0 0 0 0 0 0 0
0 0 0 0 0 0 0 1 2 3 4 5 5 5 2 1 1 0 0 0 2 3 4 7 10 13 13 12 9 6 5 3 2 1 0 0 0 0 0 0 0 0 0 0 0 0 0 0 0
0 0 0 0 0 0 0 0 1 1 1 2 3 2 1 0 0 0 0 0 2 4 6 9 13 17 18 14 11 8 5 3 2 1 0 0 0 0 0 0 0 0 0 0 0 0 0 0 0
0 0 0 0 0 0 0 0 0 0 0 0 0 0 0 0 0 0 0 1 3 6 8 10 14 18 16 12 9 6 4 2 1 1 0 0 0 0 0 0 0 0 0 0 0 0 0 0 0
0 0 0 0 0 0 0 0 0 0 0 0 0 0 0 0 0 0 1 3 6 7 8 10 12 12 10 6 4 2 1 1 0 0 0 0 0 0 0 0 0 0 0 0 0 0 0 0 0
0 0 0 0 0 0 0 0 0 0 0 0 0 0 0 0 0 0 1 3 5 5 5 7 7 6 4 1 1 0 0 0 0 0 0 0 0 0 0 0 0 0 0 0 0 0 0 0 0
0 0 0 0 0 0 0 0 0 0 0 0 0 0 0 0 0 0 0 2 3 2 1 2 4 3 1 0 0 0 0 0 0 0 0 0 0 0 0 0 0 0 0 0 0 0 0 0 0
0 0 0 0 0 0 0 0 0 0 0 0 0 0 0 0 0 0 0 0 1 0 0 0 1 1 0 0 0 0 0 0 0 0 0 0 0 0 0 0 0 0 0 0 0 0 0 0 0
0 0 0 0 0 0 0 0 0 0 0 0 0 0 0 0 0 0 0 0 0 0 0 0 0 0 0 0 0 0 0 0 0 0 0 0 0 0 0 0 0 0 0 0 0 0 0 0 0
0 0 0 0 0 0 0 0 0 0 0 0 0 0 0 0 0 0 0 0 0 0 0 0 0 0 0 0 0 0 0 0 0 0 0 0 0 0 0 0 0 0 0 0 0 0 0 0 0